GW3840 Weather Reports


time (UTC)temp
F
wind
direction
speed
knots
gust
knots
rain 1hr
in
rain 24hr
in
rain mn
in
humidity
%
barometer
mb
20260508161915 63 274 1.7 2.6 0.00 0.00 0.00 30 1007.0
20260508161412 62 268 1.7 2.6 0.00 0.00 0.00 31 1007.0
20260508160909 62 212 1.7 3.5 0.00 0.00 0.00 32 1007.1
20260508160408 62 220 1.7 6.1 0.00 0.00 0.00 29 1007.4
20260508155904 62 226 1.7 3.5 0.00 0.00 0.00 31 1007.5
20260508155402 62 277 1.7 3.5 0.00 0.00 0.00 30 1007.5
20260508154858 62 235 3.5 5.2 0.00 0.00 0.00 32 1007.5
20260508154356 62 243 0.9 7.0 0.00 0.00 0.00 29 1007.4
20260508153852 62 252 2.6 3.5 0.00 0.00 0.00 31 1007.5
20260508153349 61 255 0.9 0.9 0.00 0.00 0.00 29 1007.5
20260508152845 60 255 1.7 2.6 0.00 0.00 0.00 35 1007.8
20260508152342 60 243 0.9 1.7 0.00 0.00 0.00 33 1007.5
20260508151838 61 231 1.7 3.5 0.00 0.00 0.00 36 1007.7
20260508151335 60 218 0.9 3.5 0.00 0.00 0.00 31 1007.9
20260508150832 60 225 0.9 5.2 0.00 0.00 0.00 33 1007.8
20260508150329 59 353 0.9 2.6 0.00 0.00 0.00 36 1008.0
20260508145825 59 199 0.9 1.7 0.00 0.00 0.00 40 1007.9
20260508145321 58 217 0.0 1.7 0.00 0.00 0.00 41 1007.9
20260508144818 57 235 1.7 2.6 0.00 0.00 0.00 41 1007.9
20260508144315 57 238 2.6 3.5 0.00 0.00 0.00 42 1008.0
20260508143807 55 214 1.7 2.6 0.00 0.00 0.00 42 1008.2
20260508143304 55 211 1.7 3.5 0.00 0.00 0.00 48 1008.2
20260508142801 54 237 0.9 3.5 0.00 0.00 0.00 52 1008.3
20260508142258 54 243 1.7 2.6 0.00 0.00 0.00 51 1008.2
20260508141754 53 222 2.6 2.6 0.00 0.00 0.00 54 1008.1
20260508141251 52 255 2.6 3.5 0.00 0.00 0.00 57 1008.6
20260508140749 52 260 1.7 3.5 0.00 0.00 0.00 60 1008.4
20260508140245 51 228 2.6 5.2 0.00 0.00 0.00 57 1008.6
20260508135741 50 266 1.7 3.5 0.00 0.00 0.00 64 1008.4
20260508135238 50 214 1.7 2.6 0.00 0.00 0.00 62 1008.6
20260508134733 49 225 2.6 5.2 0.00 0.00 0.00 63 1008.3
20260508134231 48 225 3.5 3.5 0.00 0.00 0.00 64 1008.5
20260508133727 48 225 3.5 5.2 0.00 0.00 0.00 67 1008.4
20260508133225 48 234 2.6 3.5 0.00 0.00 0.00 64 1008.5
20260508132722 48 219 1.7 1.7 0.00 0.00 0.00 67 1008.5
20260508132220 47 229 0.0 0.9 0.00 0.00 0.00 72 1008.4
20260508131715 46 231 0.0 0.9 0.00 0.00 0.00 70 1008.5
20260508131212 46 251 0.9 0.9 0.00 0.00 0.00 70 1008.3
20260508130709 46 243 0.9 0.9 0.00 0.00 0.00 69 1008.3
20260508130206 46 254 0.9 0.9 0.00 0.00 0.00 72 1008.4
20260508125701 46 314 0.0 0.9 0.00 0.00 0.00 73 1008.6
20260508125158 45 6 0.0 0.9 0.00 0.00 0.00 73 1008.6
20260508124656 45 31 0.0 0.0 0.00 0.00 0.00 73 1008.5
20260508124153 45 339 1.7 1.7 0.00 0.00 0.00 74 1008.6
20260508123651 45 242 0.9 1.7 0.00 0.00 0.00 72 1008.4
20260508123149 45 267 0.9 0.9 0.00 0.00 0.00 71 1008.4
20260508122644 44 250 0.9 1.7 0.00 0.00 0.00 71 1008.6
20260508122141 44 215 0.0 0.0 0.00 0.00 0.00 74 1008.4
20260508121640 44 228 0.0 0.9 0.00 0.00 0.00 71 1008.5
20260508121138 43 283 0.9 0.9 0.00 0.00 0.00 72 1008.7
20260508120635 43 247 0.9 1.7 0.00 0.00 0.00 76 1008.6
20260508120133 43 278 0.9 1.7 0.00 0.00 0.00 79 1008.3
20260508115631 42 299 0.9 2.6 0.00 0.00 0.00 82 1008.5
20260508115127 41 227 1.7 1.7 0.00 0.00 0.00 82 1008.2
20260508114624 41 218 0.0 0.0 0.00 0.00 0.00 83 1008.5
20260508114120 41 218 0.0 0.0 0.00 0.00 0.00 84 1008.1
20260508113617 41 218 0.0 1.7 0.00 0.00 0.00 84 1008.2
20260508113116 39 183 0.9 0.9 0.00 0.00 0.00 89 1008.2
20260508112611 39 126 0.0 0.9 0.00 0.00 0.00 89 1008.0
20260508112109 40 229 0.0 0.0 0.00 0.00 0.00 89 1008.3
20260508111605 39 229 0.0 0.9 0.00 0.00 0.00 90 1008.4
20260508111102 38 170 0.0 0.9 0.00 0.00 0.00 93 1008.3
20260508110601 37 164 0.0 0.0 0.00 0.00 0.00 92 1008.4
20260508110056 36 164 0.9 1.7 0.00 0.00 0.00 89 1008.2
20260508105551 36 356 0.9 0.9 0.00 0.00 0.00 89 1008.3
20260508105049 36 101 0.9 1.7 0.00 0.00 0.00 89 1008.3
20260508104546 35 120 0.0 0.0 0.00 0.00 0.00 90 1008.2
20260508104042 34 112 0.0 0.9 0.00 0.00 0.00 92 1008.2
20260508103540 33 114 0.0 0.9 0.00 0.00 0.00 91 1008.1
20260508103037 34 107 0.0 0.0 0.00 0.00 0.00 90 1008.3
20260508102534 35 103 0.0 0.9 0.00 0.00 0.00 89 1008.2
20260508102032 35 127 0.0 0.0 0.00 0.00 0.00 89 1008.5
20260508101529 35 143 0.0 0.0 0.00 0.00 0.00 89 1008.3
20260508101026 35 141 0.0 0.0 0.00 0.00 0.00 89 1008.2
20260508100525 35 141 0.0 0.0 0.00 0.00 0.00 89 1008.3
20260508100021 35 141 0.0 0.0 0.00 0.00 0.00 90 1008.3
20260508095518 35 157 0.0 0.0 0.00 0.00 0.00 91 1008.5
20260508095015 35 156 0.0 0.0 0.00 0.00 0.00 90 1008.5
20260508094512 35 157 0.0 0.0 0.00 0.00 0.00 90 1008.4
20260508094009 35 156 0.0 0.0 0.00 0.00 0.00 89 1008.6
20260508093506 35 132 0.0 0.0 0.00 0.00 0.00 89 1008.6
20260508093004 35 136 0.0 0.0 0.00 0.00 0.00 88 1008.6
20260508092500 36 147 0.0 0.0 0.00 0.00 0.00 89 1008.3
20260508092000 35 157 0.0 0.0 0.00 0.00 0.00 89 1008.7
20260508091455 35 157 0.0 0.0 0.00 0.00 0.00 89 1008.6
20260508090948 35 149 0.0 0.0 0.00 0.00 0.00 87 1008.7
20260508090446 35 126 0.0 0.0 0.00 0.00 0.00 87 1008.6
20260508085941 35 141 0.0 0.0 0.00 0.00 0.00 88 1008.6
20260508085438 35 123 0.0 0.9 0.00 0.00 0.00 87 1008.7
20260508084935 35 127 0.0 0.0 0.00 0.00 0.00 88 1008.6
20260508084432 35 123 0.0 0.0 0.00 0.00 0.00 88 1008.6
20260508083930 35 108 0.0 0.9 0.00 0.00 0.00 88 1008.7
20260508083426 35 91 0.0 0.9 0.00 0.00 0.00 87 1008.8
20260508082921 36 88 0.9 0.9 0.00 0.00 0.00 87 1008.8
20260508082418 37 142 0.0 0.0 0.00 0.00 0.00 88 1008.8
20260508081916 37 165 0.0 0.0 0.00 0.00 0.00 88 1008.7
20260508081413 37 165 0.0 0.0 0.00 0.00 0.00 87 1009.0
20260508080909 36 165 0.0 0.0 0.00 0.00 0.00 84 1009.0
20260508080408 36 165 0.0 0.0 0.00 0.00 0.00 89 1009.0
20260508075903 36 165 0.0 0.0 0.00 0.00 0.00 89 1008.9
20260508075401 36 165 0.0 0.0 0.00 0.00 0.00 88 1008.8
20260508074859 36 134 0.0 0.0 0.00 0.00 0.00 87 1008.9
20260508074355 36 129 0.0 0.0 0.00 0.00 0.00 87 1008.8
20260508073852 37 112 0.0 0.0 0.00 0.00 0.00 89 1008.9
20260508073350 38 155 0.0 0.0 0.00 0.00 0.00 90 1008.9
20260508072846 38 163 0.0 0.0 0.00 0.00 0.00 91 1009.1
20260508072343 38 174 0.0 0.0 0.00 0.00 0.00 90 1009.0
20260508071840 38 174 0.0 0.0 0.00 0.00 0.00 90 1009.2
20260508071339 38 174 0.0 0.0 0.00 0.00 0.00 88 1009.1
20260508070837 37 168 0.0 0.0 0.00 0.00 0.00 86 1009.0
20260508070334 37 168 0.0 0.0 0.00 0.00 0.00 82 1009.2
20260508065831 37 168 0.0 0.0 0.00 0.00 0.00 80 1009.3
20260508065329 37 168 0.0 0.0 0.00 0.00 0.00 77 1009.0
20260508064827 37 168 0.0 0.0 0.00 0.00 0.00 77 1009.3
20260508064324 37 168 0.0 0.0 0.00 0.00 0.00 76 1009.2
20260508063822 37 168 0.0 0.0 0.00 0.00 0.00 75 1009.2
20260508063320 38 168 0.0 0.0 0.00 0.00 0.00 73 1009.2
20260508062817 39 166 0.0 0.0 0.00 0.00 0.00 71 1009.3
20260508062314 39 143 0.0 0.0 0.00 0.00 0.00 71 1009.3
20260508061811 38 165 0.0 0.0 0.00 0.00 0.00 73 1009.3
20260508061309 39 186 0.0 0.0 0.00 0.00 0.00 72 1009.2
20260508060804 39 186 0.0 0.0 0.00 0.00 0.00 71 1009.4
20260508060302 39 183 0.0 0.0 0.00 0.00 0.00 71 1009.3
20260508055757 40 160 0.0 0.0 0.00 0.00 0.00 71 1009.4
20260508055254 40 133 0.0 0.0 0.00 0.00 0.00 70 1009.3
20260508054750 41 129 0.0 0.0 0.00 0.00 0.00 68 1009.4
20260508054249 40 158 0.0 0.0 0.00 0.00 0.00 70 1009.7
20260508053745 41 158 0.0 0.0 0.00 0.00 0.00 69 1009.6
20260508053243 41 158 0.0 0.0 0.00 0.00 0.00 69 1009.7
20260508052739 42 111 0.0 0.0 0.00 0.00 0.00 67 1009.9
20260508052237 42 161 0.9 0.9 0.00 0.00 0.00 68 1009.5
20260508051733 42 93 0.9 1.7 0.00 0.00 0.00 71 1009.6
20260508051228 42 188 0.0 1.7 0.00 0.00 0.00 75 1009.6
20260508050725 41 227 0.0 0.0 0.00 0.00 0.00 86 1009.5
20260508050222 42 227 0.0 0.0 0.00 0.00 0.00 83 1009.4
20260508045718 42 227 0.0 0.0 0.00 0.00 0.00 83 1009.6
20260508045216 41 227 0.0 0.0 0.00 0.00 0.00 82 1009.6
20260508044714 41 227 0.0 0.0 0.00 0.00 0.00 81 1009.5
20260508044210 42 227 0.0 0.0 0.00 0.00 0.00 82 1009.5
20260508043706 42 228 0.0 0.0 0.00 0.00 0.00 82 1009.6
20260508043204 42 228 0.0 0.0 0.00 0.00 0.00 79 1009.7
20260508042700 42 228 0.0 0.0 0.00 0.00 0.00 78 1009.6
20260508042158 42 228 0.0 0.0 0.00 0.00 0.00 79 1009.9
20260508041654 43 228 0.0 0.0 0.00 0.00 0.00 79 1009.7
20260508041151 43 228 0.0 0.9 0.00 0.00 0.00 78 1009.7
20260508040648 43 228 0.0 0.9 0.00 0.00 0.00 78 1009.9
20260508040145 43 228 0.0 0.0 0.00 0.00 0.00 79 1009.7
20260508035642 43 228 0.0 0.0 0.00 0.00 0.00 77 1010.0
20260508035140 44 228 0.0 0.9 0.00 0.00 0.00 75 1009.7
20260508034636 44 228 0.9 0.9 0.00 0.00 0.00 76 1010.0
20260508034133 44 229 0.9 0.9 0.00 0.00 0.00 77 1009.9
20260508033630 44 223 0.0 0.9 0.00 0.00 0.00 77 1010.0
20260508033129 44 228 0.9 0.9 0.00 0.00 0.00 75 1009.9
20260508032625 44 229 0.0 0.9 0.00 0.00 0.00 72 1010.0
20260508032122 44 215 0.9 0.9 0.00 0.00 0.00 69 1009.9
20260508031619 44 215 0.9 0.9 0.00 0.00 0.00 65 1010.0
20260508031115 44 215 0.0 0.9 0.00 0.00 0.00 66 1010.1
20260508030612 44 215 0.0 0.0 0.00 0.00 0.00 63 1010.2
20260508030110 45 215 0.0 0.9 0.00 0.00 0.00 62 1010.0
20260508025606 45 215 0.0 0.0 0.00 0.00 0.00 63 1009.9
20260508025103 45 215 0.0 0.9 0.00 0.00 0.00 64 1009.9
20260508024559 43 228 0.9 0.9 0.00 0.00 0.00 57 1010.1
20260508024056 43 227 0.0 0.0 0.00 0.00 0.00 55 1010.1
20260508023552 44 227 0.0 0.0 0.00 0.00 0.00 57 1009.9
20260508023050 44 228 0.0 0.0 0.00 0.00 0.00 55 1010.0
20260508022546 45 227 0.0 0.0 0.00 0.00 0.00 53 1009.9
20260508022043 45 227 0.0 0.0 0.00 0.00 0.00 50 1009.7
20260508021539 46 227 0.0 0.0 0.00 0.00 0.00 48 1009.7
20260508021034 46 227 0.0 0.0 0.00 0.00 0.00 47 1009.7
20260508020532 46 227 0.0 0.0 0.00 0.00 0.00 46 1009.6
20260508020030 48 228 0.0 0.0 0.00 0.00 0.00 45 1009.6
20260508015527 48 228 0.0 0.0 0.00 0.00 0.00 43 1009.5
20260508015024 49 233 0.0 0.0 0.00 0.00 0.00 41 1009.6
20260508014520 51 234 0.0 0.0 0.00 0.00 0.00 40 1009.5
20260508014017 52 234 0.0 0.0 0.00 0.00 0.00 38 1009.4
20260508013513 53 238 0.0 0.9 0.00 0.00 0.00 36 1009.6
20260508013010 54 243 0.9 0.9 0.00 0.00 0.00 34 1009.6
20260508012507 55 248 1.7 1.7 0.00 0.00 0.00 34 1009.4
20260508012005 55 249 1.7 2.6 0.00 0.00 0.00 32 1009.6
20260508011503 55 257 0.9 1.7 0.00 0.00 0.00 32 1009.7
20260508011000 55 265 0.9 3.5 0.00 0.00 0.00 33 1009.4
20260508010457 56 267 1.7 2.6 0.00 0.00 0.00 32 1009.9
20260508005954 56 307 1.7 1.7 0.00 0.00 0.00 32 1009.5
20260508005450 56 280 3.5 6.1 0.00 0.00 0.00 31 1009.5
20260508004947 57 247 1.7 3.5 0.00 0.00 0.00 32 1009.5
20260508004443 57 316 5.2 8.7 0.00 0.00 0.00 31 1009.4
20260508003940 57 271 1.7 7.0 0.00 0.00 0.00 32 1009.6
20260508003437 57 305 3.5 5.2 0.00 0.00 0.00 31 1009.4
20260508002934 58 335 7.0 8.7 0.00 0.00 0.00 30 1009.4
20260508002431 58 285 2.6 5.2 0.00 0.00 0.00 31 1009.4
20260508001926 58 282 5.2 7.0 0.00 0.00 0.00 30 1009.5
20260508001423 58 282 5.2 7.0 0.00 0.00 0.00 30 1009.4
20260508000920 58 282 5.2 7.0 0.00 0.00 0.00 30 1009.4
20260508000415 58 282 5.2 7.0 0.00 0.00 0.00 30 1009.6
20260507235913 58 282 5.2 7.0 0.00 0.00 0.00 30 1009.5
20260507235410 58 263 2.6 3.5 0.00 0.00 0.00 30 1009.7
20260507234907 58 205 2.6 2.6 0.00 0.00 0.00 33 1009.7
20260507234403 58 205 2.6 2.6 0.00 0.00 0.00 33 1009.7
20260507233900 58 205 2.6 2.6 0.00 0.00 0.00 33 1009.7
20260507233357 58 287 5.2 7.0 0.00 0.00 0.00 32 1009.6
20260507232855 58 266 7.0 9.6 0.00 0.00 0.00 32 1009.6
20260507232351 58 312 0.9 3.5 0.00 0.00 0.00 33 1009.4
20260507231849 58 331 2.6 2.6 0.00 0.00 0.00 33 1009.9
20260507231345 56 299 4.3 7.8 0.00 0.00 0.00 32 1009.7
20260507230842 57 329 0.9 6.1 0.00 0.00 0.00 35 1009.9
20260507230339 59 309 5.2 6.1 0.00 0.00 0.00 30 1009.9
20260507225839 57 265 6.1 12.2 0.00 0.00 0.00 31 1009.9
20260507225335 58 216 7.0 13.0 0.00 0.00 0.00 32 1010.0
20260507224831 58 344 5.2 8.7 0.00 0.00 0.00 32 1009.9
20260507224328 57 299 1.7 3.5 0.00 0.00 0.00 35 1009.9
20260507223824 55 6 4.3 6.1 0.00 0.00 0.00 34 1010.1
20260507223320 56 351 3.5 5.2 0.00 0.00 0.00 34 1010.1
20260507222818 56 310 2.6 7.0 0.00 0.00 0.00 35 1010.0
20260507222314 56 289 2.6 6.1 0.00 0.00 0.00 35 1010.1
20260507221811 56 253 4.3 6.1 0.00 0.00 0.00 33 1010.1
20260507221308 57 271 2.6 3.5 0.00 0.00 0.00 34 1010.2
20260507220804 57 286 5.2 9.6 0.00 0.00 0.00 33 1010.3
20260507220303 57 298 3.5 5.2 0.00 0.00 0.00 33 1010.4
20260507215758 58 333 3.5 7.8 0.00 0.00 0.00 33 1010.3
20260507215256 59 257 4.3 7.0 0.00 0.00 0.00 31 1010.4
20260507214753 58 330 4.3 7.8 0.00 0.00 0.00 32 1010.4
20260507214250 57 334 3.5 5.2 0.00 0.00 0.00 32 1010.6
20260507213745 57 354 4.3 5.2 0.00 0.00 0.00 32 1010.5
20260507213242 57 308 3.5 5.2 0.00 0.00 0.00 36 1010.5
20260507212739 57 308 3.5 5.2 0.00 0.00 0.00 36 1010.5
20260507212235 57 308 3.5 5.2 0.00 0.00 0.00 36 1010.7
20260507211732 57 308 3.5 5.2 0.00 0.00 0.00 36 1010.8
20260507211228 57 308 3.5 5.2 0.00 0.00 0.00 36 1010.6
20260507210725 57 1 4.3 5.2 0.00 0.00 0.00 34 1010.8
20260507210222 57 330 3.5 8.7 0.00 0.00 0.00 34 1010.8
20260507205718 56 254 4.3 7.8 0.00 0.00 0.00 32 1010.9
20260507205215 57 238 3.5 8.7 0.00 0.00 0.00 34 1010.6
20260507204711 57 283 5.2 6.1 0.00 0.00 0.00 33 1010.7
20260507204209 57 352 6.1 7.8 0.00 0.00 0.00 32 1010.8
20260507203707 58 290 3.5 5.2 0.00 0.00 0.00 36 1010.9
20260507203204 58 290 3.5 5.2 0.00 0.00 0.00 36 1010.9
20260507202700 57 277 6.1 7.8 0.00 0.00 0.00 32 1010.8
20260507202156 57 223 6.1 7.8 0.00 0.00 0.00 31 1011.0
20260507201651 56 299 7.8 11.3 0.00 0.00 0.00 31 1011.2
20260507201148 54 8 3.5 8.7 0.00 0.00 0.00 33 1011.1
20260507200645 56 358 3.5 8.7 0.00 0.00 0.00 33 1011.0
20260507200141 56 356 4.3 6.1 0.00 0.00 0.00 37 1011.0
20260507195637 55 265 5.2 8.7 0.00 0.00 0.00 37 1011.3
20260507195135 55 265 5.2 8.7 0.00 0.00 0.00 37 1011.4
20260507194631 55 265 5.2 8.7 0.00 0.00 0.00 37 1011.4
20260507194126 55 265 5.2 8.7 0.00 0.00 0.00 37 1011.3
20260507193624 55 265 5.2 8.7 0.00 0.00 0.00 37 1011.4
20260507193121 55 265 5.2 8.7 0.00 0.00 0.00 37 1011.5
20260507192617 55 265 5.2 8.7 0.00 0.00 0.00 37 1011.5
20260507192115 55 265 5.2 8.7 0.00 0.00 0.00 37 1011.4
20260507191610 55 312 6.1 7.8 0.00 0.00 0.00 36 1011.4
20260507191107 55 312 6.1 7.8 0.00 0.00 0.00 36 1011.4
20260507190604 55 277 5.2 7.8 0.00 0.00 0.00 36 1011.7
20260507185601 55 254 3.5 5.2 0.00 0.00 0.00 37 1011.6
20260507185057 55 254 3.5 5.2 0.00 0.00 0.00 37 1011.6
20260507184555 55 254 3.5 5.2 0.00 0.00 0.00 37 1011.8
20260507184053 55 254 3.5 5.2 0.00 0.00 0.00 37 1012.0
20260507183549 55 254 3.5 5.2 0.00 0.00 0.00 37 1011.8
20260507183046 55 254 3.5 5.2 0.00 0.00 0.00 37 1011.8
20260507182542 55 254 3.5 5.2 0.00 0.00 0.00 37 1011.9
20260507182038 53 329 3.5 3.5 0.00 0.00 0.00 38 1011.9
20260507181536 53 329 3.5 3.5 0.00 0.00 0.00 38 1011.9
20260507181031 53 329 3.5 3.5 0.00 0.00 0.00 38 1012.0
20260507180528 53 329 3.5 3.5 0.00 0.00 0.00 38 1012.1
20260507180025 53 329 3.5 3.5 0.00 0.00 0.00 38 1012.1
20260507175521 53 329 3.5 3.5 0.00 0.00 0.00 38 1012.5
20260507175019 53 329 3.5 3.5 0.00 0.00 0.00 38 1012.5
20260507174516 53 329 3.5 3.5 0.00 0.00 0.00 38 1012.1
20260507174014 53 294 4.3 6.1 0.00 0.00 0.00 39 1012.2
20260507173510 53 294 4.3 6.1 0.00 0.00 0.00 39 1012.5
20260507173008 53 294 4.3 6.1 0.00 0.00 0.00 39 1012.5
20260507172503 53 294 4.3 6.1 0.00 0.00 0.00 39 1012.6
20260507172000 52 342 2.6 3.5 0.00 0.00 0.00 38 1012.6
20260507171455 51 282 1.7 2.6 0.00 0.00 0.00 41 1012.7
20260507170953 53 353 2.6 5.2 0.00 0.00 0.00 37 1012.8
20260507170450 53 237 4.3 7.0 0.00 0.00 0.00 40 1012.8
20260507165946 52 270 3.5 3.5 0.00 0.00 0.00 40 1013.0
20260507165442 51 262 7.0 11.3 0.00 0.00 0.00 38 1012.9
20260507164938 50 224 3.5 5.2 0.00 0.00 0.00 39 1012.8
20260507164435 51 215 2.6 6.1 0.00 0.00 0.00 38 1012.9
20260507163932 51 225 6.1 7.0 0.00 0.00 0.00 40 1013.1
20260507163430 51 240 1.7 1.7 0.00 0.00 0.00 42 1013.0
20260507162926 51 240 1.7 1.7 0.00 0.00 0.00 42 1012.9
20260507162421 51 251 2.6 3.5 0.00 0.00 0.00 42 1013.1